Orbital Elements at Epoch 2459200.5 (2020-Dec-17.0) TDB
Reference: JPL 20 (heliocentric ecliptic J2000)
Element | Value | Uncertainty (1-sigma) | Units |
e | .0560470142979292 | 4.9273e-08 | |
a | 2.960128219600026 | 2.2915e-08 | au |
q | 2.794221870952399 | 1.4935e-07 | au |
i | 4.122230954153252 | 6.5388e-06 | deg |
node | 120.8155348044991 | 0.00010686 | deg |
peri | 316.9780761718899 | 0.00013389 | deg |
M | 74.62090457557721 | 7.9595e-05 | deg |
tp | 2458814.913144784716 (2019-Nov-27.41314478) | 0.00041053 | TDB |
period | 1860.219581456723 5.09 | 2.1601e-05 5.914e-08 | d yr |
n | .1935255405268269 | 2.2472e-09 | deg/d |
Q | 3.126034568247652 | 2.4199e-08 | au |
|
| | Orbit Determination Parameters
Additional Information
|